Location: ?????????
(38.5999°N, 22.7695°E)
Time: 04:41:25
(UTC+00:00)

PAYLOAD A - Pass Details

Date: 10 August 2024
Orbit: 690 x 831 km, 98.5° (Epoch: 09 September)

Event Time Altitude Azimuth Distance (km) Brightness Sun altitude
Rises 01:39:50 0° 21° (NNE) 3,210 8.3 -20.7°
Reaches altitude 10° 01:42:19 10° 29° (NNE) 2,258 7.5 -20.3°
Maximum altitude 01:46:56 39° 98° (E) 1,071 5.1 -19.7°
Enters shadow 01:51:15 11° 167° (SSE) 2,120 6.0 -19.0°
